Waarnemingen

Advertentie
Mijn weer
Vlissingen, Nederland (6310): temperatuur & dauwpunt: 16.02.2017 11:00:00 - 22.02.2017 11:00:00 (CET)Vlissingen, Nederland (6310): temperatuur 5cm: 16.02.2017 11:00:00 - 22.02.2017 11:00:00 (CET)Vlissingen, Nederland (6310): windsnelheid & windstoten: 16.02.2017 11:00:00 - 22.02.2017 11:00:00 (CET)Vlissingen, Nederland (6310): windrichting: 16.02.2017 11:00:00 - 22.02.2017 11:00:00 (CET)Vlissingen, Nederland (6310): luchtdruk: 16.02.2017 11:00:00 - 22.02.2017 11:00:00 (CET)Vlissingen, Nederland (6310): zicht: 16.02.2017 11:00:00 - 22.02.2017 11:00:00 (CET)Vlissingen, Nederland (6310): neerslag: 16.02.2017 11:00:00 - 22.02.2017 11:00:00 (CET)
Datum & Tijd tt [°C] td [°C] tt 5cm [°C] ff [km/u] ff [kn] fx [km/u] fx [kn] dd ppp [hPa] vv [km] rr [mm]
22.02.2017 11:00:00 9,2 7,2 9,2 54 29 68 37 WZW 1008,3 8 0,0
22.02.2017 10:00:00 8,9 7,1 8,5 57 31 68 37 WZW 1007,9 6 0,0
22.02.2017 09:00:00 8,8 7,0 8,6 65 35 79 43 WZW 1008,0 6 0,0
22.02.2017 08:00:00 9,0 7,0 8,7 63 34 76 41 WZW 1008,0 7 0,0
22.02.2017 07:00:00 8,9 7,0 8,7 61 33 76 41 WZW 1007,7 7 0,0
22.02.2017 06:00:00 9,1 7,0 8,8 57 31 68 37 WZW 1007,9 7 0,0
22.02.2017 05:00:00 9,2 7,5 8,8 55 30 72 39 WZW 1008,0 7 0,0
22.02.2017 04:00:00 9,3 7,7 8,8 54 29 68 37 WZW 1008,6 8 0,0
22.02.2017 03:00:00 9,2 7,4 8,8 54 29 76 41 WZW 1009,5 10 0,0
22.02.2017 02:00:00 9,2 8,1 8,9 50 27 68 37 ZW 1009,8 9 0,0
22.02.2017 01:00:00 9,2 8,3 9,0 52 28 65 35 WZW 1010,9 8 0,0
22.02.2017 00:00:00 9,2 8,4 8,9 48 26 61 33 ZW 1011,1 7 0,0
21.02.2017 23:00:00 9,2 8,2 8,8 44 24 54 29 ZW 1011,8 10 0,0
21.02.2017 22:00:00 9,2 8,4 8,6 42 23 50 27 ZW 1012,3 7 0,0
21.02.2017 21:00:00 8,7 8,4 8,4 37 20 47 25 ZW 1012,9 2,9 0,1
21.02.2017 20:00:00 9,2 8,6 8,6 35 19 43 23 ZW 1013,3 5 0,0
21.02.2017 19:00:00 8,9 8,3 8,5 26 14 32 18 ZW 1014,0 6 0,0
21.02.2017 18:00:00 7,2 6,6 7,3 15 8 22 12 WZW 1014,5 7 0,0
21.02.2017 17:00:00 8,1 7,6 7,9 22 12 32 18 W 1015,2 7 0,0
21.02.2017 16:00:00 8,0 7,6 8,3 22 12 29 16 W 1015,7 7 0,0
21.02.2017 15:00:00 7,3 7,2 7,5 22 12 29 16 W 1016,5 2,9 0,0
21.02.2017 14:00:00 7,9 7,4 8,1 22 12 32 18 W 1017,0 7 0,0
21.02.2017 13:00:00 7,7 7,2 8,0 26 14 36 19 W 1017,2 6 0,0
21.02.2017 12:00:00 7,8 7,3 7,9 28 15 36 19 W 1017,4 6 0,0
21.02.2017 11:00:00 7,8 7,3 7,7 28 15 40 21 W 1017,2 6 0,0
21.02.2017 10:00:00 7,3 6,8 7,3 29 16 40 21 W 1016,8 6 0,0
21.02.2017 09:00:00 7,3 6,8 7,1 26 14 36 19 W 1016,4 5 0,0
21.02.2017 08:00:00 7,3 6,9 7,1 26 14 36 19 W 1016,0 7 0,0
21.02.2017 07:00:00 7,3 6,8 7,1 31 17 40 21 W 1015,6 7 0,0
21.02.2017 06:00:00 7,3 6,8 6,8 28 15 40 21 W 1015,6 6 0,0
21.02.2017 05:00:00 7,7 7,1 7,4 31 17 43 23 W 1015,9 8 0,0
21.02.2017 04:00:00 7,7 7,1 7,4 34 18 47 25 W 1015,6 8 0,0
21.02.2017 03:00:00 8,0 7,4 7,5 28 15 43 23 W 1015,8 8 0,0
21.02.2017 02:00:00 8,1 7,6 7,7 34 18 40 21 W 1016,1 5 0,0
21.02.2017 01:00:00 8,1 7,4 7,8 31 17 47 25 W 1016,2 6 0,3
21.02.2017 00:00:00 8,0 7,7 7,7 35 19 47 25 W 1015,8 4,1 0,1
20.02.2017 23:00:00 7,7 7,2 7,4 39 21 47 25 W 1015,8 5 0,0
20.02.2017 22:00:00 7,9 7,4 7,6 37 20 47 25 W 1016,0 4,7 0,0
20.02.2017 21:00:00 8,5 7,8 8,3 39 21 50 27 WZW 1015,7 5 0,0
20.02.2017 20:00:00 8,3 7,8 7,7 26 14 40 21 WZW 1015,7 5 0,0
20.02.2017 19:00:00 8,9 8,1 8,5 29 16 43 23 W 1015,8 6 0,0
20.02.2017 18:00:00 8,4 8,1 7,9 29 16 36 19 WZW 1015,3 4,0 0,0
20.02.2017 17:00:00 8,2 8,1 8,3 29 16 40 21 W 1015,6 2,8 0,0
20.02.2017 16:00:00 8,5 8,4 8,6 41 22 47 25 WZW 1015,8 2,6 0,0
20.02.2017 15:00:00 8,4 8,4 8,7 31 17 40 21 WZW 1016,0 2,4 0,0
20.02.2017 14:00:00 8,0 7,9 8,2 34 18 40 21 WZW 1016,5 0,7 0,0
20.02.2017 13:00:00 7,8 7,7 7,9 42 23 50 27 WZW 1017,0 2,3 0,0
20.02.2017 12:00:00 7,7 7,6 7,7 31 17 43 23 WZW 1017,7 1,0 0,6
20.02.2017 11:00:00 7,2 7,2 7,4 21 11 29 16 W 1018,0 0,5 1,0
20.02.2017 10:00:00 7,8 7,7 7,7 28 15 36 19 WZW 1018,0 2,7 0,1
20.02.2017 09:00:00 7,7 7,6 7,4 28 15 32 18 ZW 1018,0 1,6 0,0
20.02.2017 08:00:00 7,4 7,3 7,0 28 15 32 18 WZW 1018,2 2,4 0,0
20.02.2017 07:00:00 7,2 7,2 7,1 28 15 32 18 ZW 1018,1 2,4 0,0
20.02.2017 06:00:00 7,2 7,2 6,9 26 14 32 18 ZW 1018,9 2,1 0,0
20.02.2017 05:00:00 6,9 6,9 6,8 26 14 29 16 ZW 1018,8 1,9 0,1
20.02.2017 04:00:00 6,7 6,6 6,5 22 12 25 14 ZW 1019,4 2,0 0,0
20.02.2017 03:00:00 6,7 6,4 6,4 26 14 29 16 ZZW 1020,0 4,4 0,0
20.02.2017 02:00:00 6,6 6,0 6,4 22 12 25 14 ZZW 1020,7 5 0,0
20.02.2017 01:00:00 6,5 5,9 6,3 22 12 25 14 ZZW 1021,2 4,7 0,0
20.02.2017 00:00:00 6,6 6,0 6,3 15 8 22 12 ZW 1021,7 4,9 0,0
19.02.2017 23:00:00 6,6 5,9 6,4 21 11 25 14 WZW 1022,0 4,9 0,0
19.02.2017 22:00:00 6,2 5,4 5,9 16 9 22 12 WZW 1021,9 7 0,0
19.02.2017 21:00:00 6,3 5,5 6,0 22 12 29 16 W 1021,7 6 0,0
19.02.2017 20:00:00 6,3 5,6 6,1 24 13 32 18 W 1021,9 7 0,0
19.02.2017 19:00:00 6,4 5,5 6,2 24 13 32 18 W 1021,7 8 0,0
19.02.2017 18:00:00 6,5 5,6 6,1 24 13 32 18 W 1021,2 5 0,0
19.02.2017 17:00:00 6,3 5,5 6,4 24 13 32 18 W 1021,3 5 0,0
19.02.2017 16:00:00 6,5 5,6 6,8 26 14 32 18 W 1021,5 5 0,0
19.02.2017 15:00:00 6,5 5,5 6,6 26 14 32 18 W 1021,4 4,8 0,0
19.02.2017 14:00:00 6,7 5,6 6,8 28 15 36 19 W 1021,4 4,9 0,0
19.02.2017 13:00:00 6,5 5,5 6,8 26 14 32 18 W 1021,7 4,0 0,0
19.02.2017 12:00:00 7,1 5,7 7,1 26 14 32 18 WZW 1022,1 5 0,0
19.02.2017 11:00:00 6,4 5,3 6,4 18 10 29 16 ZW 1022,1 4,5 0,0
19.02.2017 10:00:00 5,5 4,7 5,3 26 14 32 18 ZW 1022,0 3,7 0,0
19.02.2017 09:00:00 4,5 4,2 4,1 29 16 36 19 ZW 1021,8 1,9 0,0
19.02.2017 08:00:00 4,1 4,0 3,7 29 16 40 21 ZW 1021,9 1,2 0,0
19.02.2017 07:00:00 3,8 3,8 3,6 28 15 36 19 ZW 1021,9 1,6 0,0
19.02.2017 06:00:00 3,5 3,5 3,4 26 14 29 16 ZW 1022,7 0,7 0,0
19.02.2017 05:00:00 3,4 3,3 3,1 24 13 32 18 ZW 1022,9 1,0 0,0
19.02.2017 04:00:00 3,3 3,2 3,0 21 11 25 14 ZW 1023,0 0,5 0,0
19.02.2017 03:00:00 3,0 2,9 2,6 21 11 29 16 ZW 1023,3 0,6 0,0
19.02.2017 02:00:00 3,8 3,1 3,1 24 13 29 16 ZZW 1023,7 3,6 0,0
19.02.2017 01:00:00 4,2 3,4 3,3 21 11 25 14 ZW 1024,4 4,3 0,0
19.02.2017 00:00:00 4,8 4,1 3,9 22 12 25 14 ZZW 1024,3 3,0 0,0
18.02.2017 23:00:00 4,8 4,2 3,4 15 8 22 12 ZZW 1024,9 3,2 0,0
18.02.2017 22:00:00 5,9 4,8 4,2 21 11 25 14 ZZW 1024,8 4,6 0,0
18.02.2017 21:00:00 5,7 4,7 4,3 18 10 25 14 ZZW 1024,7 4,1 0,0
18.02.2017 20:00:00 5,9 4,6 4,8 16 9 22 12 Z 1025,2 6 0,0
18.02.2017 19:00:00 6,2 4,9 4,8 18 10 22 12 Z 1025,1 5 0,0
18.02.2017 18:00:00 7,4 5,5 5,7 16 9 18 10 Z 1025,2 6 0,0
18.02.2017 17:00:00 7,2 4,9 7,1 18 10 22 12 Z 1025,2 7 0,0
18.02.2017 16:00:00 8,4 5,7 8,8 16 9 18 10 ZZW 1025,6 5 0,0
18.02.2017 15:00:00 8,2 6,5 9,0 15 8 18 10 ZZW 1025,9 4,9 0,0
18.02.2017 14:00:00 7,3 6,8 7,9 13 7 14 8 ZZW 1026,5 2,5 0,0
18.02.2017 13:00:00 6,6 6,6 7,7 13 7 18 10 Z 1027,1 1,3 0,0
18.02.2017 12:00:00 5,8 5,8 7,0 9 5 11 6 ZZO 1027,5 0,1 0,0
18.02.2017 11:00:00 5,1 5,1 6,4 8 4 11 6 Z 1027,5 0,1 0,0
18.02.2017 10:00:00 4,5 4,5 5,1 8 4 11 6 Z 1027,4 0,1 0,0
18.02.2017 09:00:00 4,1 4,1 4,3 8 4 14 8 ZZW 1027,4 0,1 0,0
18.02.2017 08:00:00 4,6 4,5 1,9 5 3 11 6 Z 1027,1 0,1 0,0
18.02.2017 07:00:00 5,2 5,1 2,6 5 3 7 4 Z 1026,9 1,7 0,0
18.02.2017 06:00:00 4,9 4,9 3,7 9 5 14 8 Z 1027,1 2,4 0,0
18.02.2017 05:00:00 5,2 5,0 4,4 8 4 11 6 Z 1027,2 2,6 0,0
18.02.2017 04:00:00 5,3 5,2 5,0 8 4 7 4 Z 1027,4 2,1 0,0
18.02.2017 03:00:00 5,4 5,3 4,8 5 3 7 4 ZZO 1027,9 1,9 0,0
18.02.2017 02:00:00 5,3 5,3 4,9 5 3 7 4 ZZO 1028,0 1,3 0,0
18.02.2017 01:00:00 5,5 5,4 5,3 2 1 4 2 - 1028,4 1,9 0,0
18.02.2017 00:00:00 5,8 5,7 4,5 4 2 7 4 W 1028,4 2,3 0,0
17.02.2017 23:00:00 5,0 4,9 4,1 8 4 7 4 WZW 1028,5 2,7 0,0
17.02.2017 22:00:00 4,9 4,8 3,5 4 2 11 6 W 1028,5 2,5 0,0
17.02.2017 21:00:00 5,0 4,8 4,7 4 2 7 4 W 1028,5 2,8 0,0
17.02.2017 20:00:00 5,6 5,5 4,6 5 3 7 4 W 1028,4 3,4 0,0
17.02.2017 19:00:00 5,9 5,1 5,3 8 4 11 6 WNW 1028,2 6 0,0
17.02.2017 18:00:00 5,9 5,4 5,3 13 7 18 10 W 1027,6 5 0,0
17.02.2017 17:00:00 6,4 5,4 5,9 9 5 14 8 WNW 1027,5 10 0,0
17.02.2017 16:00:00 7,2 5,9 6,8 15 8 22 12 W 1027,5 10 0,0
17.02.2017 15:00:00 7,3 5,9 7,3 16 9 22 12 W 1027,5 10 0,0
17.02.2017 14:00:00 7,5 6,0 8,1 16 9 22 12 W 1027,5 10 0,0
17.02.2017 13:00:00 7,4 5,6 8,3 16 9 25 14 W 1027,6 10 0,0
17.02.2017 12:00:00 7,7 5,9 8,1 15 8 25 14 WNW 1027,6 10 0,0
17.02.2017 11:00:00 6,8 5,4 7,1 15 8 22 12 W 1027,3 10 0,0
17.02.2017 10:00:00 6,6 5,6 6,6 21 11 29 16 W 1026,8 9 0,0
17.02.2017 09:00:00 6,1 5,2 5,8 22 12 36 19 W 1026,4 10 0,0
17.02.2017 08:00:00 6,1 5,3 5,7 26 14 40 21 W 1026,1 10 0,3
17.02.2017 07:00:00 6,1 5,1 5,8 24 13 36 19 W 1025,9 10 0,0
17.02.2017 06:00:00 6,2 5,1 5,6 26 14 36 19 W 1026,0 10 0,0
17.02.2017 05:00:00 6,3 5,2 5,6 26 14 32 18 W 1026,1 10 0,0
17.02.2017 04:00:00 6,0 5,2 5,6 26 14 32 18 W 1026,3 10 0,0
17.02.2017 03:00:00 5,8 5,3 5,2 24 13 32 18 W 1026,7 7 0,0
17.02.2017 02:00:00 6,0 5,6 5,3 22 12 32 18 W 1026,9 6 0,0
17.02.2017 01:00:00 5,9 5,5 5,3 26 14 32 18 W 1027,2 6 0,0
17.02.2017 00:00:00 6,1 5,7 5,8 28 15 32 18 WZW 1027,5 6 0,0
16.02.2017 23:00:00 6,0 5,4 5,2 18 10 22 12 W 1028,1 7 0,0
16.02.2017 22:00:00 6,0 5,3 5,5 18 10 25 14 WZW 1028,2 7 0,0
16.02.2017 21:00:00 5,7 5,1 5,3 21 11 25 14 WZW 1028,2 8 0,0
16.02.2017 20:00:00 6,0 5,3 5,5 24 13 29 16 W 1028,4 10 0,0
16.02.2017 19:00:00 6,0 5,1 5,6 26 14 32 18 W 1028,4 10 0,0
16.02.2017 18:00:00 6,1 5,1 5,5 28 15 36 19 W 1028,4 10 0,0
16.02.2017 17:00:00 6,1 5,1 6,1 21 11 29 16 WZW 1028,3 8 0,0
16.02.2017 16:00:00 7,0 5,6 7,1 28 15 36 19 W 1028,8 10 0,0
16.02.2017 15:00:00 7,2 5,9 7,8 29 16 40 21 W 1028,9 10 0,0
16.02.2017 14:00:00 7,3 6,1 8,4 26 14 36 19 W 1029,5 10 0,0
16.02.2017 13:00:00 7,4 6,3 8,1 29 16 40 21 W 1029,9 9 0,0
16.02.2017 12:00:00 7,9 6,7 8,5 21 11 25 14 WZW 1030,3 7 0,0
16.02.2017 11:00:00 7,2 6,4 7,6 21 11 22 12 ZW 1030,5 4,5 0,0

tt = temperatuur
td = dauwpunt
tt 5cm = temperatuur 5cm
ff = windsnelheid
fx = windstoten
dd = windrichting
ppp = luchtdruk
vv = zicht
rr = neerslag

Weerstations in de omgeving